Weather reports worldwide

Advertisment
Gogerddan, United Kingdom (99150): temperature & dewpoint: 15.02.2017 14:00:00 - 21.02.2017 14:00:00 (GMT)Gogerddan, United Kingdom (99150): temperature -20cm & temperature -100cm: 15.02.2017 14:00:00 - 21.02.2017 14:00:00 (GMT)Gogerddan, United Kingdom (99150): precipitation: 15.02.2017 14:00:00 - 21.02.2017 14:00:00 (GMT)
Date & Time tt [°C] td [°C] tt -20cm [°C] tt -100cm [°C] rr [mm]
21.02.2017 14:00:00 - - - - -
21.02.2017 13:00:00 9,5 9,5 - - 0,6
21.02.2017 12:00:00 9,7 9,7 - - 1,2
21.02.2017 11:00:00 9,5 9,5 - - 0,0
21.02.2017 10:00:00 9,3 9,3 - - 0,0
21.02.2017 09:00:00 9,1 9,1 8,0 7,5 0,2
21.02.2017 08:00:00 8,9 8,9 - - 0,0
21.02.2017 07:00:00 8,9 8,9 - - 0,0
21.02.2017 06:00:00 8,8 8,8 - - 0,0
21.02.2017 05:00:00 8,7 8,7 - - 0,2
21.02.2017 04:00:00 8,4 8,3 - - 0,4
21.02.2017 03:00:00 8,7 8,6 - - 0,8
21.02.2017 02:00:00 8,6 8,4 - - 0,8
21.02.2017 01:00:00 9,1 8,6 - - 0,0
21.02.2017 00:00:00 9,4 8,8 - - 0,0
20.02.2017 23:00:00 9,3 8,5 - - 0,0
20.02.2017 22:00:00 9,6 8,7 - - 0,0
20.02.2017 21:00:00 9,6 8,9 - - 0,0
20.02.2017 20:00:00 9,4 8,8 - - 0,0
20.02.2017 19:00:00 9,4 8,8 - - 0,0
20.02.2017 18:00:00 9,4 8,9 - - 0,0
20.02.2017 17:00:00 9,7 9,1 - - 0,0
20.02.2017 16:00:00 9,6 9,0 - - 0,0
20.02.2017 15:00:00 9,8 9,3 - - 0,0
20.02.2017 14:00:00 9,9 9,2 - - 0,0
20.02.2017 13:00:00 10,3 9,6 - - 0,0
20.02.2017 12:00:00 10,4 9,9 - - 0,0
20.02.2017 11:00:00 11,0 10,5 - - 0,0
20.02.2017 10:00:00 9,6 9,3 - - 0,2
20.02.2017 09:00:00 9,4 9,1 7,7 7,4 0,0
20.02.2017 08:00:00 9,3 8,9 - - 0,0
20.02.2017 07:00:00 9,6 9,3 - - 0,0
20.02.2017 06:00:00 9,8 9,6 - - 0,0
20.02.2017 05:00:00 9,0 8,8 - - 0,0
20.02.2017 04:00:00 9,7 9,4 - - 0,0
20.02.2017 03:00:00 9,6 9,3 - - 0,0
20.02.2017 02:00:00 10,3 9,8 - - 0,0
20.02.2017 01:00:00 10,7 10,2 - - 0,0
20.02.2017 00:00:00 10,5 10,1 - - 0,0
19.02.2017 23:00:00 10,7 10,4 - - 0,0
19.02.2017 22:00:00 10,4 10,1 - - 0,0
19.02.2017 21:00:00 10,3 10,0 - - 0,2
19.02.2017 20:00:00 9,9 9,7 - - 0,0
19.02.2017 19:00:00 9,2 9,0 - - 0,0
19.02.2017 18:00:00 9,0 8,9 - - 0,0
19.02.2017 17:00:00 9,1 9,1 - - 0,0
19.02.2017 16:00:00 8,7 8,6 - - 0,0
19.02.2017 15:00:00 9,0 8,8 - - 0,4
19.02.2017 14:00:00 9,5 9,2 - - 1,0
19.02.2017 13:00:00 9,8 9,5 - - 0,6
19.02.2017 12:00:00 9,6 9,3 - - 0,2
19.02.2017 11:00:00 9,2 8,8 - - 0,0
19.02.2017 10:00:00 8,7 8,4 - - 0,8
19.02.2017 09:00:00 8,4 7,8 7,4 7,2 0,2
19.02.2017 08:00:00 8,8 7,1 - - 0,0
19.02.2017 07:00:00 8,4 6,6 - - 0,0
19.02.2017 06:00:00 8,4 6,6 - - 0,0
19.02.2017 05:00:00 8,5 7,3 - - 0,0
19.02.2017 04:00:00 8,5 7,9 - - 0,0
19.02.2017 03:00:00 9,0 7,8 - - 0,0
19.02.2017 02:00:00 9,2 7,9 - - 0,0
19.02.2017 01:00:00 9,6 8,5 - - 0,0
19.02.2017 00:00:00 9,5 8,4 - - 0,2
18.02.2017 23:00:00 9,8 8,1 - - 0,0
18.02.2017 22:00:00 9,9 7,5 - - 0,0
18.02.2017 21:00:00 9,3 7,0 - - 0,0
18.02.2017 20:00:00 9,7 6,8 - - 0,0
18.02.2017 19:00:00 10,0 6,7 - - 0,0
18.02.2017 18:00:00 9,5 7,2 - - 0,0
18.02.2017 17:00:00 9,4 6,9 - - 0,0
18.02.2017 16:00:00 12,0 6,6 - - 0,0
18.02.2017 15:00:00 12,1 7,0 - - 0,0
18.02.2017 14:00:00 11,9 7,3 - - 0,0
18.02.2017 13:00:00 11,0 7,5 - - 0,0
18.02.2017 12:00:00 10,3 7,3 - - 0,0
18.02.2017 11:00:00 10,4 7,1 - - 0,0
18.02.2017 10:00:00 10,6 7,5 - - 0,0
18.02.2017 09:00:00 10,8 7,1 7,0 7,2 0,0
18.02.2017 08:00:00 10,7 7,0 - - 0,0
18.02.2017 07:00:00 10,4 6,8 - - 0,0
18.02.2017 06:00:00 10,9 6,9 - - 0,0
18.02.2017 05:00:00 10,8 6,8 - - 0,0
18.02.2017 04:00:00 10,7 6,7 - - 0,0
18.02.2017 03:00:00 10,6 6,8 - - 0,0
18.02.2017 02:00:00 10,2 6,9 - - 0,0
18.02.2017 01:00:00 10,2 6,8 - - 0,0
18.02.2017 00:00:00 10,1 6,8 - - 0,0
17.02.2017 23:00:00 10,7 7,1 - - 0,0
17.02.2017 22:00:00 10,9 7,3 - - 0,0
17.02.2017 21:00:00 11,2 7,4 - - 0,0
17.02.2017 20:00:00 10,7 7,7 - - 0,0
17.02.2017 19:00:00 10,9 7,8 - - 0,0
17.02.2017 18:00:00 11,0 7,8 - - 0,0
17.02.2017 17:00:00 10,7 7,9 - - 0,0
17.02.2017 16:00:00 10,4 7,9 - - 0,0
17.02.2017 15:00:00 10,4 7,4 - - 0,0
17.02.2017 14:00:00 10,5 7,4 - - 0,0
17.02.2017 13:00:00 10,1 7,3 - - 0,0
17.02.2017 12:00:00 9,8 7,1 - - 0,0
17.02.2017 11:00:00 9,3 6,8 - - 0,0
17.02.2017 10:00:00 9,2 7,0 - - 0,0
17.02.2017 09:00:00 8,2 6,8 6,7 7,0 0,0
17.02.2017 08:00:00 8,0 6,7 - - 0,0
17.02.2017 07:00:00 8,2 6,7 - - 0,0
17.02.2017 06:00:00 8,2 6,9 - - 0,0
17.02.2017 05:00:00 8,2 6,9 - - 0,0
17.02.2017 04:00:00 8,3 7,0 - - 0,0
17.02.2017 03:00:00 8,6 7,2 - - 0,0
17.02.2017 02:00:00 8,6 7,2 - - 0,0
17.02.2017 01:00:00 8,5 7,1 - - 0,0
17.02.2017 00:00:00 8,6 7,1 - - 0,0
16.02.2017 23:00:00 8,5 7,2 - - 0,0
16.02.2017 22:00:00 8,2 7,3 - - 0,2
16.02.2017 21:00:00 8,0 7,3 - - 0,0
16.02.2017 20:00:00 7,7 6,8 - - 0,2
16.02.2017 19:00:00 8,0 6,7 - - 0,6
16.02.2017 18:00:00 8,7 7,8 - - 0,4
16.02.2017 17:00:00 8,8 7,8 - - 0,2
16.02.2017 16:00:00 9,1 7,5 - - 0,0
16.02.2017 15:00:00 9,2 7,3 - - 0,0
16.02.2017 14:00:00 9,8 7,0 - - 0,0
16.02.2017 13:00:00 9,6 7,5 - - 0,0
16.02.2017 12:00:00 9,9 6,9 - - 0,0
16.02.2017 11:00:00 9,9 7,3 - - 0,0
16.02.2017 10:00:00 9,1 7,2 - - 0,0
16.02.2017 09:00:00 7,1 5,7 6,7 7,0 0,0
16.02.2017 08:00:00 6,2 5,3 - - 0,0
16.02.2017 07:00:00 6,4 5,2 - - 0,0
16.02.2017 06:00:00 6,9 5,6 - - 0,0
16.02.2017 05:00:00 6,6 4,9 - - 0,0
16.02.2017 04:00:00 7,6 5,7 - - 0,0
16.02.2017 03:00:00 8,2 6,3 - - 0,0
16.02.2017 02:00:00 8,6 6,3 - - 0,0
16.02.2017 01:00:00 8,8 6,6 - - 0,0
16.02.2017 00:00:00 9,2 6,6 - - 0,0
15.02.2017 23:00:00 9,2 6,5 - - 0,0
15.02.2017 22:00:00 9,3 6,9 - - 0,0
15.02.2017 21:00:00 9,5 7,3 - - 0,0
15.02.2017 20:00:00 9,8 7,8 - - 0,0
15.02.2017 19:00:00 9,8 8,2 - - 0,0
15.02.2017 18:00:00 9,2 7,8 - - 0,0
15.02.2017 17:00:00 10,0 6,3 - - 0,0
15.02.2017 16:00:00 11,1 6,2 - - 0,0
15.02.2017 15:00:00 11,4 7,5 - - 0,0
15.02.2017 14:00:00 11,9 7,6 - - 0,0

tt = temperature
td = dewpoint
tt -20cm = temperature -20cm
tt -100cm = temperature -100cm
rr = precipitation

Next stations